Location: Gowrie
(35.4119°S, 149.1090°E)
Time: 04:20:35
(UTC+10:00)

ISS - Visible Passes

Search period start: 23 June 2017 00:00
Search period end: 03 July 2017 00:00
Orbit: 401 x 408 km, 51.6° (Epoch: 23 June)

Date Brightness Start Highest point End Pass type
(mag) Time Alt. Az. Time Alt. Az. Time Alt. Az.
23 Jun -1.1 05:37:25 11° NNW 05:37:25 11° NNW 05:37:35 10° NNW visible
26 Jun -0.4 19:33:46 10° NW 19:33:53 11° NW 19:33:53 11° NW visible
27 Jun -3.0 18:41:41 10° NNW 18:44:14 41° N 18:44:14 41° N visible
28 Jun -2.3 17:50:07 10° N 17:52:47 23° NE 17:54:31 15° E visible
28 Jun -0.8 19:26:10 10° W 19:27:12 17° W 19:27:12 17° W visible
29 Jun -3.4 18:33:33 10° WNW 18:36:49 58° SW 18:37:23 49° S visible
30 Jun -3.7 17:41:18 10° NW 17:44:34 65° NE 17:47:29 13° SE visible
30 Jun -0.8 19:19:14 10° WSW 19:20:10 13° SW 19:20:10 13° SW visible
01 Jul -2.0 18:26:04 10° W 18:28:52 25° SSW 18:30:11 19° S visible
02 Jul -2.9 17:33:16 10° WNW 17:36:29 45° SW 17:39:43 10° SE visible
